Helicity
73 89 94 93 88 84 88 85 80 70 72 67 74 79 81 83 80 74 69 62 54 50 40 36 44 55 59 64 69 119 130 99 122 111 94 108 105 102 108 113 120 87 82 97 80 78 67
85 94 85 74 77 88 83 88 80 85 79 73 71 71 75 77 78 75 69 63 54 40 29 24 35 69 77 76 104 114 134 144 121 109 122 108 100 97 111 119 91 128 87 81 93 73 76
72 72 41 61 65 54 55 54 60 54 51 55 61 61 63 60 59 60 58 55 48 36 24 25 43 81 92 46 128 146 151 109 132 119 124 100 146 118 130 119 119 135 105 75 68 73 87
52 49 47 72 66 49 52 43 31 28 40 48 45 44 52 57 62 54 47 50 32 29 30 37 56 112 102 90 109 114 151 171 180 171 161 115 138 165 167 201 146 119 111 110 82 96 118
53 89 137 110 62 57 59 34 29 34 42 43 52 56 65 67 82 77 66 41 36 45 78 88 111 127 70 87 70 79 129 163 178 186 190 182 166 189 215 169 142 106 107 83 117 64 125
130 145 123 95 86 74 49 42 37 45 53 57 54 60 68 73 90 93 76 48 71 103 120 108 161 108 47 71 67 85 115 130 220 224 268 248 234 223 231 226 160 106 132 121 100 80 93
115 116 96 82 89 85 71 60 63 59 71 68 61 60 67 85 76 82 66 36 67 74 159 112 144 151 130 152 117 90 144 188 220 194 234 210 234 264 192 109 107 227 133 102 126 144 126
127 110 109 123 111 89 88 75 57 62 73 71 61 61 75 71 47 91 39 61 88 90 18 42 41 64 71 173 212 205 200 228 252 223 179 258 169 140 94 94 122 115 125 109 104 81 106
143 142 132 112 104 90 82 56 47 48 49 49 48 54 48 63 6 47 65 140 106 111 59 32 78 128 169 130 208 242 219 262 195 177 234 190 181 76 166 134 116 100 93 89 104 106 69
130 125 125 113 86 70 53 39 33 30 37 45 46 44 29 39 24 28 40 72 86 65 32 55 162 155 107 103 115 52 184 255 292 203 192 124 97 201 101 67 97 78 83 76 101 118 125
130 136 122 86 72 41 44 36 35 28 20 18 15 4 -20 -13 -33 -17 24 49 62 43 38 193 259 120 199 227 240 191 74 181 200 299 333 263 179 105 172 175 117 150 99 35 74 97 146
135 108 78 64 46 45 43 42 31 16 -2 -12 -12 -12 -19 -9 -7 8 12 37 64 56 47 358 356 415 464 251 227 176 109 133 174 212 187 150 195 134 99 93 99 153 176 182 147 132 112
109 73 68 50 52 44 31 29 15 -1 -23 -46 -53 -52 -15 -27 -35 -30 -6 49 -3 90 357 390 442 430 469 383 324 265 204 169 231 271 171 142 113 178 192 156 146 158 191 204 153 190 154
72 66 46 55 40 34 27 11 5 -5 -36 -68 -82 -33 5 27 10 9 22 27 32 386 398 329 261 246 268 326 285 343 215 164 171 231 232 185 175 104 159 161 184 96 158 245 169 148 125
65 55 61 42 34 36 12 3 6 -14 -41 -62 -33 19 25 39 2 11 4 124 289 301 225 138 100 144 187 253 265 299 245 373 371 359 374 234 186 167 100 90 152 227 214 157 237 235 174
68 60 44 46 37 16 16 6 -8 -16 -29 -45 10 -35 20 10 -6 8 37 113 156 111 86 54 63 101 137 159 217 246 252 109 265 418 353 292 294 98 83 170 86 221 167 297 295 282 248
62 49 57 41 31 20 23 2 -0 6 -9 -9 -7 -17 28 26 37 93 52 73 91 66 85 56 112 69 82 70 121 121 143 43 86 134 284 288 260 223 169 146 157 285 282 264 290 245 305
56 61 41 50 24 37 25 15 28 32 18 43 -33 -4 42 30 67 5 59 41 44 33 56 55 48 80 134 123 68 65 87 7 -25 -95 9 139 282 295 178 233 145 62 118 143 191 220 213
73 56 52 46 24 40 41 32 42 46 54 36 28 26 56 14 83 84 98 94 58 46 56 62 53 51 35 56 46 112 126 51 68 -42 -158 -138 157 468 405 214 373 402 348 309 111 174 169
64 55 51 41 32 48 55 46 52 69 62 65 55 97 75 78 93 112 115 115 95 39 30 42 13 14 22 30 9 35 76 89 136 47 28 -117 -187 -16 313 301 244 358 512 435 337 264 167
53 51 47 41 42 53 66 57 67 87 81 61 86 145 103 94 107 103 131 114 90 90 42 32 33 27 36 28 41 16 34 64 27 48 23 -20 -231 -127 -101 -72 105 247 254 251 556 401 299
62 49 53 50 62 63 82 66 61 92 94 93 115 127 141 71 90 96 127 137 98 62 72 29 51 29 25 21 -9 -14 11 29 31 12 51 12 -26 -75 -98 -71 -73 -76 158 170 193 163 378
47 52 59 64 70 66 77 76 58 86 108 114 128 121 127 91 107 114 128 100 75 53 37 43 14 6 -4 2 9 3 -6 11 -4 -0 11 5 3 -20 -207 -57 -36 -30 205 -27 -69 178 147
42 55 49 83 73 68 71 85 61 64 112 118 134 132 144 117 112 95 75 77 52 35 45 4 33 22 42 11 -8 8 11 5 -3 -14 -33 -1 7 19 -9 38 -77 37 189 81 -28 68 163
63 77 54 77 73 80 63 82 67 60 110 140 145 139 157 135 95 66 94 70 43 34 33 34 64 22 7 15 15 10 18 17 28 10 -11 -27 -1 42 59 -6 78 62 161 177 177 137 272
71 60 72 64 39 86 85 64 76 55 69 156 131 112 135 141 107 117 81 70 69 53 35 33 13 19 16 23 30 31 25 35 28 14 17 17 2 -11 32 90 27 86 110 88 106 73 159
54 56 55 59 62 62 52 46 41 45 57 138 132 95 129 141 83 104 83 73 71 48 47 21 30 20 32 52 43 56 64 50 42 42 31 9 14 28 28 59 53 103 70 18 49 162 159
38 28 32 60 38 57 20 29 44 44 51 112 121 95 99 128 80 86 75 78 69 60 57 34 34 43 34 67 67 78 74 81 58 58 47 34 13 33 25 27 51 150 35 24 48 69 128
31 33 39 46 19 21 21 23 51 46 35 146 121 92 73 93 88 73 67 13 31 69 43 40 35 38 33 40 52 43 55 49 46 58 54 45 56 48 50 38 36 51 44 39 54 65 81
Wind_Speed
55 57 57 58 59 61 65 68 69 70 71 71 72 74 75 77 77 77 77 77 77 78 76 72 65 61 55 55 56 46 37 18 9 13 18 22 26 35 43 44 41 49 54 51 53 54 55
56 56 57 58 60 64 69 71 72 74 75 75 76 77 79 80 81 81 81 81 81 78 74 68 60 50 52 67 44 40 34 19 22 23 26 27 36 35 44 47 43 46 51 56 56 58 58
53 54 56 57 60 65 70 71 75 76 76 77 79 80 82 83 83 84 84 84 83 80 76 60 49 43 55 62 44 45 36 28 27 28 34 35 36 35 39 50 46 50 62 63 62 58 58
52 53 54 58 65 68 71 73 75 77 79 81 82 83 84 86 87 88 88 88 82 76 60 51 38 36 60 47 47 46 35 34 32 35 41 35 34 40 42 40 45 51 55 64 47 43 48
51 56 57 62 65 69 72 74 75 79 82 83 85 86 88 90 92 93 93 87 79 55 49 40 38 41 61 45 45 41 31 34 31 35 37 32 33 45 43 52 62 55 74 64 62 41 46
56 57 61 64 68 71 74 74 76 80 83 85 88 90 92 93 95 96 90 81 55 46 42 41 45 49 45 47 40 38 29 27 32 28 35 37 42 52 52 51 74 72 69 67 66 49 52
58 60 62 66 69 71 72 75 78 82 85 88 91 94 97 98 95 87 76 57 59 55 51 51 54 62 65 56 44 40 28 25 30 34 47 42 57 63 57 55 64 61 64 68 58 51 62
59 61 65 68 69 72 74 77 80 84 87 90 94 97 100 96 84 70 58 55 56 64 88 70 66 77 71 65 68 47 24 32 37 51 44 55 75 58 58 58 64 70 75 76 73 70 70
61 63 65 67 70 73 74 78 82 85 88 90 93 96 93 95 58 67 56 60 62 66 77 81 65 64 61 48 62 56 34 42 49 52 49 62 60 53 53 57 64 68 72 70 70 61 67
60 63 63 67 70 72 76 79 83 86 88 90 93 94 93 92 60 75 60 77 68 54 85 79 62 54 51 48 53 39 34 42 57 65 57 70 64 54 51 61 55 76 63 66 64 68 78
59 62 64 65 69 72 76 80 85 88 91 93 95 96 88 75 73 76 76 75 63 48 98 63 59 44 57 57 64 51 30 44 61 57 52 65 63 62 70 64 51 64 47 52 55 63 71
59 60 62 66 69 73 77 82 85 89 93 95 97 97 83 74 74 75 79 67 47 70 94 70 58 75 79 62 59 53 45 43 49 63 68 76 57 56 60 56 47 42 42 44 49 57 80
57 59 63 65 71 74 77 81 85 89 93 97 98 89 74 74 87 82 71 56 71 81 78 76 81 85 84 73 67 61 59 56 61 71 85 75 76 62 53 53 43 41 46 61 66 65 73
56 59 62 66 70 73 77 82 85 89 93 96 97 69 74 77 79 71 63 62 82 77 80 82 85 84 75 71 67 72 61 65 55 67 73 77 85 69 56 66 59 59 56 62 71 69 62
56 59 63 66 69 75 78 80 85 89 91 95 84 61 80 87 76 66 65 75 79 81 80 88 91 84 72 69 72 67 58 61 50 54 75 75 83 57 50 53 55 57 69 59 62 58 64
56 59 62 66 71 73 77 81 84 86 92 94 74 63 86 85 74 64 68 69 66 63 71 68 77 68 85 81 79 72 66 50 55 55 59 66 84 57 53 48 61 61 49 63 63 77 82
55 58 62 65 70 72 77 80 81 86 91 86 68 68 79 80 61 73 77 65 57 57 64 62 63 64 65 68 71 72 65 53 55 60 55 59 70 66 54 68 65 64 67 65 60 68 72
53 59 61 65 67 70 76 76 80 83 88 75 68 77 71 72 78 70 73 59 51 54 60 51 52 54 62 66 65 62 62 61 58 62 62 54 63 82 75 61 63 60 69 68 76 73 77
54 56 60 63 66 68 74 74 78 80 84 70 71 66 60 68 80 76 63 55 49 56 55 49 49 53 53 59 59 58 58 54 58 53 53 50 54 77 77 59 45 59 58 60 79 68 74
53 55 58 61 64 67 71 73 74 75 77 62 66 74 64 62 57 65 66 58 58 50 41 52 54 47 51 52 48 53 54 51 58 54 50 53 59 62 78 69 60 66 61 56 69 76 80
51 52 57 59 61 66 67 71 71 71 69 57 63 64 59 69 63 60 54 51 58 54 43 49 43 42 49 48 58 46 55 60 51 45 49 56 69 68 65 68 68 70 62 52 56 60 72
50 48 54 55 60 62 65 69 68 69 60 57 62 61 53 55 53 55 50 50 50 49 43 45 42 55 47 48 51 65 60 54 54 51 63 52 65 70 78 67 66 61 57 61 56 51 49
49 51 52 54 59 62 63 65 64 64 55 55 49 45 48 51 51 52 50 51 49 46 41 27 39 55 46 50 49 53 57 59 61 62 54 50 55 62 75 66 70 75 65 50 45 49 58
48 50 50 55 57 61 63 60 62 59 48 49 46 45 49 56 47 47 44 44 46 44 35 38 24 30 36 44 55 47 44 41 40 43 38 44 48 53 65 65 86 57 45 40 44 49 47
48 52 54 55 58 57 59 59 60 57 48 46 41 42 43 51 44 42 43 44 44 44 41 40 37 31 36 37 42 42 37 34 37 36 36 38 43 48 53 58 53 54 52 55 54 51 47
51 52 57 56 58 57 56 57 56 57 50 43 39 32 36 45 43 39 42 39 43 46 43 38 31 33 31 32 34 39 41 41 39 40 38 37 40 45 46 56 65 51 56 53 52 59 45
54 53 55 58 58 58 59 54 54 54 47 40 37 26 33 39 34 32 38 37 34 38 38 37 44 32 34 34 35 38 40 39 42 45 45 45 44 45 46 47 43 48 49 44 63 62 52
55 53 58 56 58 56 56 55 56 49 45 37 37 22 30 35 35 27 28 30 29 30 38 42 38 34 33 37 36 37 38 39 41 40 43 44 45 43 43 42 48 47 39 48 47 48 51
59 58 60 64 61 60 58 55 52 44 41 33 35 25 22 28 33 30 24 25 17 29 32 33 35 32 33 32 32 33 38 40 40 45 37 40 38 39 38 35 28 30 26 31 38 44 47
Wind_Direction
25 17 12 10 7 3 358 354 349 345 342 340 337 334 331 327 324 322 319 317 314 310 308 309 312 316 317 305 300 311 311 317 310 295 285 283 280 282 279 284 282 279 283 285 285 286 285
18 17 14 11 7 3 356 351 345 341 339 338 336 334 331 327 325 321 318 315 314 313 313 311 312 317 312 300 314 313 303 293 286 280 282 283 286 284 286 285 279 290 285 285 286 284 285
20 21 18 19 15 7 0 354 350 346 343 338 335 333 331 328 326 323 319 315 313 312 312 315 315 313 305 299 312 306 299 285 282 279 281 281 286 281 287 286 286 289 285 285 283 284 284
26 24 24 20 10 6 1 356 353 349 345 340 335 332 330 326 322 320 315 309 312 315 324 323 322 318 304 312 310 296 295 286 284 285 287 284 282 283 283 291 292 288 288 283 290 284 288
29 26 20 15 12 7 4 1 357 351 345 341 335 331 329 326 322 318 312 312 315 327 331 335 328 319 309 319 309 303 290 281 278 282 286 286 279 279 280 278 281 282 279 281 285 284 287
26 21 15 12 9 3 1 360 357 352 348 344 338 333 330 328 324 318 316 317 329 331 332 329 322 314 313 314 318 312 296 285 280 273 279 275 276 272 270 267 274 278 277 278 279 286 282
20 18 16 11 6 5 3 0 357 353 348 343 339 333 329 324 324 325 330 334 326 321 321 312 311 302 304 309 311 309 299 281 278 265 265 266 266 262 265 266 275 282 279 280 283 287 285
20 16 11 8 6 3 1 358 356 353 349 346 343 339 335 332 334 341 343 337 335 321 306 307 302 296 296 299 294 291 285 272 267 265 264 272 265 270 273 272 273 274 276 277 283 285 283
17 13 11 8 6 3 2 359 356 353 351 348 347 345 344 339 354 348 346 341 334 329 310 309 309 306 307 300 286 282 267 268 267 265 259 266 279 277 267 270 270 271 272 277 279 288 286
16 13 12 8 7 5 2 0 358 355 353 351 348 346 344 341 348 344 340 333 332 333 307 308 312 315 318 314 299 294 269 269 272 266 267 271 267 278 270 269 270 273 277 276 278 282 280
17 15 13 12 11 9 7 4 360 356 352 349 347 345 346 354 345 339 335 333 333 331 301 315 314 330 317 302 304 306 286 269 266 268 266 271 274 265 266 271 267 277 282 276 277 277 282
19 19 18 15 14 11 6 3 2 358 352 348 346 344 348 350 346 341 337 335 335 311 297 308 314 310 311 305 300 301 295 279 281 272 268 270 278 273 272 271 266 275 276 280 281 280 277
23 23 20 17 12 9 8 5 2 358 354 349 348 349 355 353 342 341 342 336 315 302 315 306 304 308 305 300 299 296 286 273 271 269 265 267 266 270 270 268 263 255 267 272 273 271 275
24 22 18 14 12 11 8 5 3 0 356 353 351 1 1 357 352 350 346 328 309 312 308 310 308 305 299 305 296 298 288 277 272 276 272 264 266 258 259 255 263 253 253 264 270 269 275
23 20 17 14 12 9 8 6 4 1 359 355 358 6 2 358 358 357 345 325 317 316 314 308 306 299 294 300 299 295 296 286 287 291 270 269 265 271 270 258 250 260 251 263 271 277 274
23 19 17 14 10 10 9 6 4 3 0 358 4 3 1 1 5 6 351 335 329 331 325 319 307 304 294 293 290 290 283 291 290 297 289 275 268 265 262 264 257 259 255 258 261 263 264
21 18 15 13 12 11 8 6 6 4 2 3 9 3 5 7 16 8 353 347 345 341 337 325 316 310 305 300 294 284 280 285 296 295 293 285 268 266 261 256 255 255 257 258 264 260 263
21 17 15 14 12 11 8 8 7 6 4 11 9 1 10 12 5 6 360 359 355 349 344 340 329 320 312 306 295 289 285 283 295 293 284 290 274 264 260 269 262 257 256 252 255 257 257
18 17 14 13 11 11 9 8 7 6 6 7 5 5 14 15 2 3 5 4 1 352 349 348 338 331 324 312 299 294 291 297 296 293 282 288 276 268 259 260 264 258 270 269 255 261 256
16 14 13 11 10 9 9 7 7 8 8 12 6 0 7 14 17 8 4 4 359 0 358 347 336 335 328 318 313 300 298 298 299 290 293 282 271 268 258 261 271 261 273 274 260 256 255
15 13 11 9 8 7 7 6 6 8 10 13 9 4 8 360 6 6 8 7 -0 1 1 349 346 341 328 320 309 307 305 301 303 298 293 288 268 267 270 270 269 266 266 270 268 266 260
12 11 8 8 6 4 5 4 4 6 10 11 5 4 6 360 3 5 8 6 3 2 1 352 349 329 327 318 312 300 302 304 298 299 294 291 272 272 264 268 267 262 273 266 270 273 269
7 6 6 4 3 2 2 3 3 4 10 6 8 9 4 0 1 2 5 3 360 1 3 0 346 330 325 318 319 313 305 301 294 293 295 290 280 273 262 266 263 256 271 264 268 274 269
5 3 0 1 359 359 358 0 1 1 6 5 5 4 358 353 358 358 360 2 0 1 356 351 358 351 356 325 315 323 320 317 319 310 304 296 289 278 268 266 255 262 278 278 269 274 277
2 0 358 358 356 357 357 357 358 358 2 0 4 2 357 350 354 355 2 1 4 8 12 9 14 14 359 351 335 328 327 322 322 324 316 304 299 287 274 267 262 263 271 268 265 269 282
0 358 357 356 354 355 355 354 354 354 356 358 359 4 359 352 359 360 360 5 7 10 14 15 21 17 19 2 346 326 318 317 310 312 323 316 306 291 283 268 260 268 275 267 264 257 282
355 355 355 354 353 352 351 351 353 354 355 356 358 7 2 351 357 4 359 3 13 14 16 15 7 19 15 359 342 328 319 324 311 305 304 305 302 292 285 277 275 288 279 267 254 258 275
358 356 353 353 351 350 349 349 351 352 355 358 358 8 358 352 348 358 7 4 7 14 10 7 10 19 12 356 349 338 326 322 315 314 311 303 299 295 288 283 273 302 282 267 269 273 275
358 356 354 353 350 349 348 349 349 352 353 1 356 6 6 356 351 353 352 352 18 12 14 20 15 21 18 10 6 354 332 321 317 303 316 304 309 300 296 292 304 316 315 301 292 283 284